Ranchita (211) Station Data

Red Flag Warning: No
Fire Weather Zone: 258
SDGE Region: Ramona
Lat/Lon: 33.21/-116.508

Observations

Time Wind Speed/Gust Temp(F) RH Fuel Moist Fuel Temp(F) Dewpt(F) Tmax(F) Tmin(F) Accum Precip 10-min Precip SL Press(mb)
4/29 11:50pm 22 5 G 6 50° 21% - - 11° 67° 47.5° - - 1023.0
4/29 11:40pm 26 5 G 6 50° 21% - - 11° 67° 47.5° - - 1023.0
4/29 11:30pm 25 5 G 6 49° 22% - - 12° 67° 47.5° - - 1023.0
4/29 11:20pm 25 4 G 5 50° 22% - - 13° 67° 47.5° - - 1023.0
4/29 11:10pm 8 4 G 6 51° 22% - - 13° 67° 47.5° - - 1022.0
4/29 11:00pm 16 4 G 5 51° 21% - - 13° 67° 47.5° - - 1022.0
4/29 10:50pm 9 3 G 4 52° 22% - - 14° 67° 47.5° - - 1022.0
4/29 10:40pm 43 2 G 3 49° 25% - - 15° 67° 47.5° - - 1023.0
4/29 10:30pm 16 2 G 4 50° 27% - - 17° 67° 47.5° - - 1023.0
4/29 10:20pm 334 4 G 5 51° 26% - - 17° 67° 47.8° - - 1022.0
4/29 10:10pm 22 2 G 3 50° 29% - - 19° 67° 47.8° - - 1023.0
4/29 10:00pm 352 2 G 3 51° 29% - - 20° 67° 47.8° - - 1022.0
4/29 9:50pm 353 2 G 3 51° 28% - - 20° 67° 47.8° - - 1022.0
4/29 9:40pm 319 3 G 4 53° 28% - - 20° 67° 47.8° - - 1022.0
4/29 9:30pm 316 3 G 4 53° 26% - - 19° 67° 47.8° - - 1021.0
4/29 9:20pm 4 3 G 4 52° 24% - - 17° 67° 47.8° - - 1022.0
4/29 9:10pm 20 2 G 4 51° 25% - - 17° 67° 47.8° - - 1022.0
4/29 9:00pm 3 3 G 5 53° 23% - - 17° 67° 47.8° - - 1021.0
4/29 8:50pm 9 3 G 5 54° 22% - - 16° 67° 47.8° - - 1021.0
4/29 8:40pm 350 3 G 4 54° 22% - - 16° 67° 47.8° - - 1021.0
4/29 8:30pm 9 3 G 4 52° 22% - - 14° 67° 47.8° - - 1021.0
4/29 8:20pm 25 5 G 6 54° 19% - - 13° 67° 47.8° - - 1020.0
4/29 8:10pm 46 4 G 5 53° 19% - - 12° 67° 47.8° - - 1020.0
4/29 8:00pm 43 3 G 6 52° 19% - - 12° 67° 47.8° - - 1020.0
4/29 7:50pm 13 3 G 6 57° 15% - - 67° 47.8° - - 1019.0
4/29 7:40pm 8 1 G 2 58° 14% - - 67° 47.8° - - 1018.0
4/29 7:30pm 139 1 G 2 60° 13% - - 10° 67° 47.8° - - 1018.0
4/29 7:20pm 168 2 G 4 63° 11% - - 67° 47.8° - - 1017.0
4/29 7:10pm 171 3 G 7 63° 11% - - 67° 47.8° - - 1016.0
4/29 7:00pm 179 4 G 7 64° 11% - - 67° 47.8° - - 1016.0
4/29 6:50pm 147 5 G 8 64° 11% - - 67° 47.8° - - 1016.0
4/29 6:40pm 142 6 G 8 65° 10% - - 67° 47.8° - - 1016.0
4/29 6:30pm 165 6 G 11 65° 10% - - 67° 47.8° - - 1016.0
4/29 6:20pm 135 5 G 9 65° 10% - - 67° 47.8° - - 1016.0
4/29 6:10pm 107 5 G 7 65° 10% - - 67° 47.8° - - 1016.0
4/29 6:00pm 118 4 G 8 65° 10% - - 67° 47.8° - - 1015.0
4/29 5:50pm 86 6 G 10 65° 10% - - 67° 47.8° - - 1015.0
4/29 5:40pm 116 3 G 8 66° 10% - - 67° 47.8° - - 1015.0
4/29 5:30pm 77 8 G 12 65° 10% - - 67° 47.8° - - 1015.0
4/29 5:20pm 77 5 G 11 65° 10% - - 67° 47.8° - - 1015.0
4/29 5:10pm 106 8 G 12 65° 10% - - 67° 47.8° - - 1015.0
4/29 5:00pm 122 7 G 12 66° 10% - - 67° 47.8° - - 1015.0
4/29 4:50pm 100 5 G 12 66° 10% - - 67° 47.8° - - 1015.0
4/29 4:40pm 98 6 G 11 65° 10% - - 67° 47.8° - - 1015.0
4/29 4:30pm 125 8 G 12 65° 10% - - 67° 47.8° - - 1015.0
4/29 4:20pm 126 9 G 13 65° 10% - - 67° 47.8° - - 1015.0
4/29 4:10pm 119 9 G 15 65° 10% - - 67° 47.8° - - 1015.0
4/29 4:00pm 77 10 G 14 65° 10% - - 67° 47.8° - - 1015.0
4/29 3:50pm 66 11 G 16 66° 9% - - 67° 47.8° - - 1015.0
4/29 3:40pm 94 10 G 27 65° 10% - - 67° 47.8° - - 1015.0
4/29 3:30pm 101 10 G 17 64° 10% - - 65.7° 47.8° - - 1016.0
4/29 3:20pm 114 12 G 18 65° 10% - - 65.7° 47.8° - - 1016.0
4/29 3:10pm 100 11 G 17 64° 10% - - 65.6° 47.8° - - 1016.0
4/29 3:00pm 90 13 G 20 65° 10% - - 65.6° 47.8° - - 1016.0
4/29 2:50pm 74 12 G 23 64° 9% - - 65.5° 47.8° - - 1016.0
4/29 2:40pm 88 12 G 17 64° 9% - - 65.5° 47.8° - - 1016.0
4/29 2:30pm 79 11 G 17 64° 10% - - 65.5° 47.8° - - 1016.0
4/29 2:20pm 87 10 G 16 63° 10% - - 64.6° 47.8° - - 1016.0
4/29 2:10pm 63 9 G 21 63° 10% - - 64.2° 47.8° - - 1016.0
4/29 2:00pm 52 10 G 19 63° 10% - - 64.2° 47.8° - - 1016.0
4/29 1:50pm 76 10 G 17 63° 10% - - 64.2° 47.8° - - 1016.0
4/29 1:40pm 85 9 G 16 63° 10% - - 63.9° 47.8° - - 1017.0
4/29 1:30pm 62 6 G 13 63° 10% - - 63.9° 47.8° - - 1017.0
4/29 1:20pm 132 7 G 17 61° 10% - - 62.6° 47.8° - - 1017.0
4/29 1:10pm 36 5 G 13 61° 10% - - 62.6° 47.8° - - 1017.0
4/29 1:00pm 98 11 G 17 61° 11% - - 62.3° 47.8° - - 1017.0
4/29 12:50pm 69 7 G 16 61° 11% - - 62.3° 47.8° - - 1017.0
4/29 12:40pm 96 8 G 15 61° 11% - - 62.3° 47.8° - - 1017.0
4/29 12:30pm 78 8 G 15 60° 11% - - 61.1° 47.8° - - 1017.0
4/29 12:20pm 81 8 G 16 60° 11% - - 60.9° 47.8° - - 1018.0
4/29 12:10pm 98 8 G 17 60° 11% - - 60.9° 47.8° - - 1018.0
4/29 12:00pm 116 9 G 14 59° 11% - - 60.6° 47.8° - - 1018.0
4/29 11:50am 77 11 G 18 60° 11% - - 60.6° 47.8° - - 1017.0
4/29 11:40am 75 8 G 16 60° 11% - - 60.6° 47.8° - - 1017.0
4/29 11:30am 96 9 G 16 59° 11% - - 60° 47.8° - - 1018.0
4/29 11:20am 86 12 G 18 58° 11% - - 59.1° 47.8° - - 1018.0
4/29 11:10am 94 10 G 17 58° 11% - - 59.1° 47.8° - - 1018.0
4/29 11:00am 101 12 G 19 58° 11% - - 59° 47.8° - - 1018.0
4/29 10:50am 115 8 G 13 58° 11% - - 58.9° 47.8° - - 1017.0
4/29 10:40am 70 10 G 16 58° 11% - - 58.8° 47.8° - - 1018.0
4/29 10:30am 84 12 G 18 58° 11% - - 58.7° 47.8° - - 1018.0
4/29 10:20am 80 12 G 17 57° 11% - - 57.8° 47.8° - - 1018.0
4/29 10:10am 87 11 G 17 57° 10% - - 57.8° 47.8° - - 1018.0
4/29 10:00am 88 9 G 14 57° 11% - - 57.8° 47.8° - - 1018.0
4/29 9:50am 77 10 G 16 57° 11% - - 57.8° 47.8° - - 1018.0
4/29 9:40am 98 9 G 15 56° 12% - - 57.8° 47.8° - - 1018.0
4/29 9:30am 84 10 G 14 56° 11% - - 56.3° 47.8° - - 1018.0
4/29 9:20am 88 10 G 16 56° 12% - - 56.1° 47.8° - - 1018.0
4/29 9:10am 69 10 G 16 55° 12% - - 55.9° 47.8° - - 1018.0
4/29 9:00am 71 10 G 13 55° 12% - - 55.6° 47.8° - - 1018.0
4/29 8:50am 75 10 G 14 55° 12% - - 55.6° 47.8° - - 1018.0
4/29 8:40am 64 12 G 20 54° 13% - - 55.6° 47.8° - - 1018.0
4/29 8:30am 63 15 G 20 54° 13% - - 55.6° 47.8° - - 1018.0
4/29 8:20am 67 13 G 20 54° 13% - - 55.6° 47.8° - - 1018.0
4/29 8:10am 64 10 G 16 54° 13% - - 55.6° 47.8° - - 1018.0
4/29 8:00am 61 11 G 22 54° 13% - - 55.6° 47.8° - - 1018.0
4/29 7:50am 68 14 G 24 53° 12% - - 55.6° 47.8° - - 1017.0
4/29 7:40am 67 13 G 22 53° 13% - - 55.6° 47.8° - - 1017.0
4/29 7:30am 81 8 G 17 52° 14% - - 55.6° 47.8° - - 1017.0
4/29 7:20am 106 6 G 13 51° 15% - - 55.6° 47.8° - - 1018.0
4/29 7:10am 92 8 G 13 51° 15% - - 55.6° 47.8° - - 1018.0
4/29 7:00am 70 10 G 15 50° 15% - - 55.6° 47.8° - - 1018.0
4/29 6:50am 56 9 G 12 50° 16% - - 55.6° 47.8° - - 1018.0
4/29 6:40am 76 11 G 16 49° 16% - - 55.6° 47.8° - - 1018.0
4/29 6:30am 74 14 G 17 49° 16% - - 55.6° 47.8° - - 1018.0
4/29 6:20am 80 13 G 20 49° 16% - - 55.6° 47.8° - - 1018.0
4/29 6:10am 78 13 G 18 49° 16% - - 55.6° 47.8° - - 1017.0
4/29 6:00am 75 14 G 17 49° 17% - - 55.6° 47.8° - - 1017.0
4/29 5:50am 74 12 G 19 49° 16% - - 55.6° 47.8° - - 1017.0
4/29 5:40am 75 13 G 20 49° 16% - - 55.6° 47.8° - - 1017.0
4/29 5:30am 76 11 G 16 49° 16% - - 55.6° 47.8° - - 1017.0
4/29 5:20am 66 8 G 11 49° 17% - - 55.6° 47.8° - - 1017.0
4/29 5:10am 59 8 G 11 49° 17% - - 55.6° 47.8° - - 1017.0
4/29 5:00am 69 9 G 14 49° 17% - - 55.6° 47.8° - - 1017.0
4/29 4:50am 63 8 G 12 49° 17% - - 55.6° 47.8° - - 1017.0
4/29 4:40am 74 9 G 15 49° 17% - - 55.6° 47.8° - - 1017.0
4/29 4:30am 45 6 G 10 49° 17% - - 55.6° 47.8° - - 1017.0
4/29 4:20am 53 8 G 12 50° 16% - - 55.6° 49.4° - - 1016.0
4/29 4:10am 60 9 G 11 50° 17% - - 55.6° 49.4° - - 1016.0
4/29 4:00am 57 9 G 13 51° 16% - - 55.6° 49.7° - - 1016.0
4/29 3:50am 35 9 G 14 52° 15% - - 55.6° 50.8° - - 1016.0
4/29 3:40am 39 9 G 14 51° 16% - - 55.6° 50.8° - - 1016.0
4/29 3:30am 46 10 G 16 52° 15% - - 55.6° 51.6° - - 1015.0
4/29 3:20am 49 10 G 17 52° 15% - - 55.6° 51.6° - - 1016.0
4/29 3:10am 41 12 G 20 53° 15% - - 55.6° 52° - - 1015.0
4/29 3:00am 52 12 G 17 53° 15% - - 55.6° 52° - - 1015.0
4/29 2:50am 58 12 G 19 53° 15% - - 55.6° 52.3° - - 1015.0
4/29 2:40am 57 12 G 18 53° 15% - - 55.6° 52.3° - - 1015.0
4/29 2:30am 45 10 G 19 53° 15% - - 55.6° 52.3° - - 1015.0
4/29 2:20am 43 10 G 16 53° 16% - - 55.6° 52.4° - - 1015.0
4/29 2:10am 15 12 G 21 53° 15% - - 55.6° 52.8° - - 1015.0
4/29 2:00am 9 12 G 21 53° 15% - - 55.6° 53° - - 1014.0
4/29 1:50am 9 11 G 21 53° 15% - - 55.6° 53° - - 1015.0
4/29 1:40am 9 12 G 21 53° 15% - - 55.6° 53° - - 1015.0
4/29 1:30am 36 10 G 17 54° 14% - - 55.6° 53° - - 1015.0
4/29 1:20am 49 9 G 16 55° 14% - - 55.6° 53.7° - - 1014.0
4/29 1:10am 53 10 G 16 55° 14% - - 55.6° 53.9° - - 1014.0
4/29 1:00am 48 10 G 20 54° 14% - - 55.6° 53.9° - - 1014.0
4/29 12:50am 38 9 G 15 54° 14% - - 55.6° 53.9° - - 1014.0
4/29 12:40am 17 10 G 16 54° 14% - - 55.6° 53.9° - - 1014.0
4/29 12:30am 17 9 G 15 54° 14% - - 55.6° 53.9° - - 1014.0
4/29 12:20am 5 10 G 16 55° 14% - - 55.6° 54.3° - - 1014.0
4/29 12:10am 5 9 G 15 55° 14% - - 55.6° 54.4° - - 1014.0
4/29 12:00am 7 8 G 14 55° 14% - - 68.7° 46.1° - - 1014.0
4/28 11:50pm 23 6 G 10 54° 15% - - 68.7° 46.1° - - 1014.0
4/28 11:40pm 50 6 G 9 55° 15% - - 68.7° 46.1° - - 1013.0
4/28 11:30pm 52 6 G 8 54° 16% - - 10° 68.7° 46.1° - - 1013.0
4/28 11:20pm 39 7 G 10 55° 16% - - 10° 68.7° 46.1° - - 1013.0
4/28 11:10pm 31 8 G 11 55° 17% - - 12° 68.7° 46.1° - - 1013.0
4/28 11:00pm 27 8 G 12 54° 20% - - 14° 68.7° 46.1° - - 1013.0
4/28 10:50pm 19 6 G 8 53° 25% - - 18° 68.7° 46.1° - - 1013.0
4/28 10:40pm 10 7 G 8 53° 27% - - 20° 68.7° 46.1° - - 1013.0
4/28 10:30pm 18 6 G 8 54° 31% - - 24° 68.7° 46.1° - - 1013.0
4/28 10:20pm 21 5 G 7 54° 40% - - 30° 68.7° 46.1° - - 1013.0
4/28 10:10pm 16 4 G 7 56° 37% - - 30° 68.7° 46.1° - - 1013.0
4/28 10:00pm 346 2 G 4 56° 34% - - 28° 68.7° 46.1° - - 1012.0
4/28 9:50pm 49 3 G 5 54° 39% - - 30° 68.7° 46.1° - - 1013.0
4/28 9:40pm 69 3 G 6 55° 40% - - 31° 68.7° 46.1° - - 1012.0
4/28 9:30pm 57 4 G 6 54° 41% - - 31° 68.7° 46.1° - - 1012.0
4/28 9:20pm 10 2 G 4 55° 43% - - 33° 68.7° 46.1° - - 1012.0
4/28 9:10pm 158 1 G 3 55° 47% - - 35° 68.7° 46.1° - - 1012.0
4/28 9:00pm 107 4 G 5 54° 49% - - 36° 68.7° 46.1° - - 1012.0
4/28 8:50pm 14 2 G 5 55° 47% - - 35° 68.7° 46.1° - - 1011.0
4/28 8:40pm 263 6 G 11 56° 45% - - 35° 68.7° 46.1° - - 1011.0
4/28 8:30pm 274 6 G 10 56° 45% - - 35° 68.7° 46.1° - - 1011.0
4/28 8:20pm 274 6 G 11 56° 44% - - 35° 68.7° 46.1° - - 1010.0
4/28 8:10pm 273 8 G 11 57° 44% - - 35° 68.7° 46.1° - - 1010.0
4/28 8:00pm 271 10 G 14 57° 46% - - 36° 68.7° 46.1° - - 1010.0
4/28 7:50pm 255 7 G 10 57° 47% - - 37° 68.7° 46.1° - - 1010.0
4/28 7:40pm 274 5 G 7 58° 46% - - 37° 68.7° 46.1° - - 1009.0
4/28 7:30pm 308 4 G 8 58° 47% - - 38° 68.7° 46.1° - - 1009.0
4/28 7:20pm 314 6 G 10 58° 48% - - 39° 68.7° 46.1° - - 1009.0
4/28 7:10pm 311 7 G 11 59° 48% - - 39° 68.7° 46.1° - - 1009.0
4/28 7:00pm 301 8 G 13 60° 48% - - 40° 68.7° 46.1° - - 1009.0
4/28 6:50pm 294 9 G 15 60° 49% - - 41° 68.7° 46.1° - - 1008.0
4/28 6:40pm 283 10 G 14 60° 48% - - 41° 68.7° 46.1° - - 1008.0
4/28 6:30pm 281 11 G 17 61° 48% - - 41° 68.7° 46.1° - - 1008.0
4/28 6:20pm 282 12 G 16 61° 48% - - 41° 68.7° 46.1° - - 1008.0
4/28 6:10pm 271 12 G 18 62° 48% - - 42° 68.7° 46.1° - - 1007.0
4/28 6:00pm 275 12 G 18 62° 47% - - 42° 68.7° 46.1° - - 1007.0